Location: Trebic
(49.2170°N, 15.8830°E)
Time: 18:26:29
(UTC+02:00)

Transit 4A - Pass Details

Date: 30 July 2019
Orbit: 863 x 981 km, 66.8° (Epoch: 22 August)

Event Time Altitude Azimuth Distance (km) Brightness Sun altitude
Exits shadow 01:05:46 34° 221° (SW) 1,554 8.7 -22.1°
Maximum altitude 01:08:47 83° 306° (NW) 994 8.0 -22.1°
Drops below altitude 10° 01:15:14 10° 35° (NE) 2,737 11.1 -22.1°
Sets 01:17:48 0° 36° (NE) 3,681 11.9 -22.1°
